Time,TemperatureF,DewpointF,PressureIn,WindDirection,WindDirectionDegrees,WindSpeedMPH,WindSpeedGustMPH,Humidity,HourlyPrecipIn,Conditions,Clouds,dailyrainin,SoftwareType,DateUTC
2013-01-12 00:02:00,32.0,-99.9,30.33,ESE,113,5.0,8.0,-999,-99.99,,,-99.99,,2013-01-12 08:02:00,
2013-01-12 00:12:00,32.0,-99.9,30.33,ESE,109,4.0,8.0,-999,-99.99,,,-99.99,,2013-01-12 08:12:00,
2013-01-12 00:22:00,32.0,-99.9,30.33,ESE,116,4.0,6.0,-999,-99.99,,,-99.99,,2013-01-12 08:22:00,
2013-01-12 00:32:00,32.0,-99.9,30.33,SE,128,6.0,7.0,-999,-99.99,,,-99.99,,2013-01-12 08:32:00,
2013-01-12 00:42:00,32.0,-99.9,30.33,SE,124,4.0,6.0,-999,-99.99,,,-99.99,,2013-01-12 08:42:00,
2013-01-12 00:53:00,-999.0,-99.9,30.33,ESE,120,5.0,6.0,-999,-99.99,,,-99.99,,2013-01-12 08:53:00,
2013-01-12 01:02:00,-999.0,-99.9,30.33,SE,126,4.0,6.0,-999,-99.99,,,-99.99,,2013-01-12 09:02:00,
2013-01-12 01:12:00,-999.0,-99.9,30.34,SE,144,3.0,5.0,-999,-99.99,,,-99.99,,2013-01-12 09:12:00,
2013-01-12 01:22:00,32.0,-99.9,30.34,SE,135,3.0,5.0,-999,-99.99,,,-99.99,,2013-01-12 09:22:00,
2013-01-12 01:33:00,-999.0,-99.9,30.34,SE,125,3.0,4.0,-999,-99.99,,,-99.99,,2013-01-12 09:33:00,
2013-01-12 01:43:00,-999.0,-99.9,30.34,SE,138,3.0,5.0,-999,-99.99,,,-99.99,,2013-01-12 09:43:00,
2013-01-12 01:53:00,32.0,-99.9,30.34,ESE,123,3.0,5.0,-999,-99.99,,,-99.99,,2013-01-12 09:53:00,
2013-01-12 02:02:00,32.0,-99.9,30.34,SE,125,3.0,4.0,-999,-99.99,,,-99.99,,2013-01-12 10:02:00,
2013-01-12 02:12:00,-999.0,-99.9,30.34,SE,134,3.0,4.0,-999,-99.99,,,-99.99,,2013-01-12 10:12:00,
2013-01-12 02:22:00,32.0,-99.9,30.34,SE,135,4.0,5.0,-999,-99.99,,,-99.99,,2013-01-12 10:22:00,
2013-01-12 02:32:00,-999.0,-99.9,30.34,ESE,107,3.0,6.0,-999,-99.99,,,-99.99,,2013-01-12 10:32:00,
2013-01-12 02:43:00,-999.0,-99.9,30.34,East,95,3.0,4.0,-999,-99.99,,,-99.99,,2013-01-12 10:43:00,
2013-01-12 02:52:00,-999.0,-99.9,30.35,ESE,103,2.0,4.0,-999,-99.99,,,-99.99,,2013-01-12 10:52:00,
2013-01-12 03:02:00,-999.0,-99.9,30.34,SE,129,3.0,4.0,-999,-99.99,,,-99.99,,2013-01-12 11:02:00,
2013-01-12 03:12:00,-999.0,-99.9,30.35,SSE,150,2.0,4.0,-999,-99.99,,,-99.99,,2013-01-12 11:12:00,
2013-01-12 03:22:00,31.0,-99.9,30.35,SE,145,4.0,5.0,-999,-99.99,,,-99.99,,2013-01-12 11:22:00,
2013-01-12 03:33:00,-999.0,-99.9,30.34,SSE,147,4.0,5.0,-999,-99.99,,,-99.99,,2013-01-12 11:33:00,
2013-01-12 03:43:00,-999.0,-99.9,30.34,SE,140,4.0,5.0,-999,-99.99,,,-99.99,,2013-01-12 11:43:00,
2013-01-12 03:53:00,31.0,-99.9,30.34,SSE,149,4.0,6.0,-999,-99.99,,,-99.99,,2013-01-12 11:53:00,
2013-01-12 04:03:00,-999.0,-99.9,30.34,SSE,159,3.0,5.0,-999,-99.99,,,-99.99,,2013-01-12 12:03:00,
2013-01-12 04:12:00,-999.0,-99.9,30.34,SSE,156,3.0,4.0,-999,-99.99,,,-99.99,,2013-01-12 12:12:00,
2013-01-12 04:22:00,-999.0,-99.9,30.35,SSE,155,2.0,5.0,-999,-99.99,,,-99.99,,2013-01-12 12:22:00,
2013-01-12 04:33:00,-999.0,-99.9,30.35,SSE,160,3.0,5.0,-999,-99.99,,,-99.99,,2013-01-12 12:33:00,
2013-01-12 04:43:00,-999.0,-99.9,30.35,SE,136,2.0,3.0,-999,-99.99,,,-99.99,,2013-01-12 12:43:00,
2013-01-12 04:53:00,30.0,-99.9,30.35,SE,138,4.0,4.0,-999,-99.99,,,-99.99,,2013-01-12 12:53:00,
2013-01-12 05:03:00,-999.0,-99.9,30.35,ESE,119,3.0,5.0,-999,-99.99,,,-99.99,,2013-01-12 13:03:00,
2013-01-12 05:12:00,-999.0,-99.9,30.35,ESE,118,2.0,3.0,-999,-99.99,,,-99.99,,2013-01-12 13:12:00,
2013-01-12 05:23:00,30.0,-99.9,30.35,SE,124,4.0,5.0,-999,-99.99,,,-99.99,,2013-01-12 13:23:00,
2013-01-12 05:33:00,-999.0,-99.9,30.35,ESE,116,2.0,4.0,-999,-99.99,,,-99.99,,2013-01-12 13:33:00,
2013-01-12 05:43:00,31.0,-99.9,30.35,ESE,119,3.0,4.0,-999,-99.99,,,-99.99,,2013-01-12 13:43:00,
2013-01-12 05:53:00,-999.0,-99.9,30.35,ESE,123,4.0,5.0,-999,-99.99,,,-99.99,,2013-01-12 13:53:00,
2013-01-12 06:02:00,-999.0,-99.9,30.35,SE,127,4.0,5.0,-999,-99.99,,,-99.99,,2013-01-12 14:02:00,
2013-01-12 06:12:00,-999.0,-99.9,30.35,SE,131,3.0,4.0,-999,-99.99,,,-99.99,,2013-01-12 14:12:00,
2013-01-12 06:22:00,-999.0,-99.9,30.35,SE,131,3.0,4.0,-999,-99.99,,,-99.99,,2013-01-12 14:22:00,
2013-01-12 06:33:00,-999.0,-99.9,30.35,SE,142,3.0,4.0,-999,-99.99,,,-99.99,,2013-01-12 14:33:00,
2013-01-12 06:43:00,-999.0,-99.9,30.35,South,173,4.0,5.0,-999,-99.99,,,-99.99,,2013-01-12 14:43:00,
2013-01-12 06:53:00,29.0,-99.9,30.35,SSE,156,3.0,5.0,-999,-99.99,,,-99.99,,2013-01-12 14:53:00,
2013-01-12 07:03:00,-999.0,-99.9,30.35,SSE,157,3.0,5.0,-999,-99.99,,,-99.99,,2013-01-12 15:03:00,
2013-01-12 07:13:00,29.0,-99.9,30.35,SSE,167,4.0,5.0,-999,-99.99,,,-99.99,,2013-01-12 15:13:00,
2013-01-12 07:23:00,-999.0,-99.9,30.36,South,179,2.0,4.0,-999,-99.99,,,-99.99,,2013-01-12 15:23:00,
2013-01-12 07:34:00,-999.0,-99.9,30.36,South,179,2.0,4.0,-999,-99.99,,,-99.99,,2013-01-12 15:34:00,
2013-01-12 07:43:00,-999.0,-99.9,30.36,SSE,147,2.0,4.0,-999,-99.99,,,-99.99,,2013-01-12 15:43:00,
2013-01-12 07:53:00,30.0,-99.9,30.36,South,177,3.0,4.0,-999,-99.99,,,-99.99,,2013-01-12 15:53:00,
2013-01-12 08:03:00,30.0,-99.9,30.36,South,177,3.0,4.0,-999,-99.99,,,-99.99,,2013-01-12 16:03:00,
2013-01-12 08:13:00,30.0,-99.9,30.36,South,177,3.0,4.0,-999,-99.99,,,-99.99,,2013-01-12 16:13:00,
2013-01-12 08:23:00,30.0,-99.9,30.36,South,177,3.0,4.0,-999,-99.99,,,-99.99,,2013-01-12 16:23:00,
2013-01-12 08:33:00,-999.0,-99.9,30.38,South,170,3.0,4.0,-999,-99.99,,,-99.99,,2013-01-12 16:33:00,
2013-01-12 08:43:00,-999.0,-99.9,30.38,South,175,2.0,4.0,-999,-99.99,,,-99.99,,2013-01-12 16:43:00,
2013-01-12 08:53:00,-999.0,-99.9,30.39,South,172,3.0,4.0,-999,-99.99,,,-99.99,,2013-01-12 16:53:00,
2013-01-12 09:03:00,-999.0,-99.9,30.39,South,172,3.0,4.0,-999,-99.99,,,-99.99,,2013-01-12 17:03:00,
2013-01-12 09:13:00,-999.0,-99.9,30.39,South,172,3.0,4.0,-999,-99.99,,,-99.99,,2013-01-12 17:13:00,
2013-01-12 09:23:00,-999.0,-99.9,30.39,South,172,3.0,4.0,-999,-99.99,,,-99.99,,2013-01-12 17:23:00,
2013-01-12 10:33:00,33.0,-99.9,30.40,South,187,3.0,4.0,-999,-99.99,,,-99.99,,2013-01-12 18:33:00,
2013-01-12 10:43:00,33.0,-99.9,30.40,SSW,205,2.0,4.0,-999,-99.99,,,-99.99,,2013-01-12 18:43:00,
2013-01-12 10:53:00,33.0,-99.9,30.40,SW,218,2.0,3.0,-999,-99.99,,,-99.99,,2013-01-12 18:53:00,
2013-01-12 11:03:00,34.0,-99.9,30.40,SW,231,2.0,4.0,-999,-99.99,,,-99.99,,2013-01-12 19:03:00,
2013-01-12 11:12:00,34.0,-99.9,30.40,SSW,207,2.0,4.0,-999,-99.99,,,-99.99,,2013-01-12 19:12:00,
2013-01-12 11:23:00,34.0,-99.9,30.40,SSW,199,2.0,4.0,-999,-99.99,,,-99.99,,2013-01-12 19:23:00,
2013-01-12 11:33:00,35.0,-99.9,30.40,SW,233,4.0,5.0,-999,-99.99,,,-99.99,,2013-01-12 19:33:00,
2013-01-12 11:43:00,35.0,-99.9,30.40,SW,220,2.0,4.0,-999,-99.99,,,-99.99,,2013-01-12 19:43:00,
2013-01-12 11:53:00,35.0,-99.9,30.40,SSW,198,2.0,3.0,-999,-99.99,,,-99.99,,2013-01-12 19:53:00,
2013-01-12 12:03:00,35.0,-99.9,30.39,WSW,246,2.0,3.0,-999,-99.99,,,-99.99,,2013-01-12 20:03:00,
2013-01-12 12:13:00,35.0,-99.9,30.40,WSW,251,2.0,4.0,-999,-99.99,,,-99.99,,2013-01-12 20:13:00,
2013-01-12 12:22:00,35.0,-99.9,30.40,WSW,245,2.0,3.0,-999,-99.99,,,-99.99,,2013-01-12 20:22:00,
2013-01-12 12:33:00,36.0,-99.9,30.40,WSW,237,2.0,4.0,-999,-99.99,,,-99.99,,2013-01-12 20:33:00,
2013-01-12 12:43:00,37.0,-99.9,30.39,WSW,248,2.0,4.0,-999,-99.99,,,-99.99,,2013-01-12 20:43:00,
2013-01-12 12:53:00,37.0,-99.9,30.39,NNW,336,7.0,9.0,-999,-99.99,,,-99.99,,2013-01-12 20:53:00,
2013-01-12 13:03:00,37.0,-99.9,30.38,NW,323,7.0,9.0,-999,-99.99,,,-99.99,,2013-01-12 21:03:00,
2013-01-12 13:12:00,36.0,-99.9,30.38,NW,315,5.0,9.0,-999,-99.99,,,-99.99,,2013-01-12 21:12:00,
2013-01-12 13:22:00,37.0,-99.9,30.38,NW,322,6.0,8.0,-999,-99.99,,,-99.99,,2013-01-12 21:22:00,
2013-01-12 13:33:00,38.0,-99.9,30.38,NNW,329,2.0,6.0,-999,-99.99,,,-99.99,,2013-01-12 21:33:00,
2013-01-12 13:43:00,38.0,-99.9,30.39,NW,306,5.0,7.0,-999,-99.99,,,-99.99,,2013-01-12 21:43:00,
2013-01-12 13:53:00,37.0,-99.9,30.39,North,1,7.0,13.0,-999,-99.99,,,-99.99,,2013-01-12 21:53:00,
2013-01-12 14:03:00,37.0,-99.9,30.40,NNW,340,3.0,8.0,-999,-99.99,,,-99.99,,2013-01-12 22:03:00,
2013-01-12 14:12:00,38.0,-99.9,30.39,NNW,333,2.0,6.0,-999,-99.99,,,-99.99,,2013-01-12 22:12:00,
2013-01-12 14:23:00,38.0,-99.9,30.40,NNW,330,3.0,7.0,-999,-99.99,,,-99.99,,2013-01-12 22:23:00,
2013-01-12 14:33:00,38.0,-99.9,30.40,NNW,335,5.0,10.0,-999,-99.99,,,-99.99,,2013-01-12 22:33:00,
2013-01-12 14:44:00,38.0,-99.9,30.40,NW,320,9.0,12.0,-999,-99.99,,,-99.99,,2013-01-12 22:44:00,
2013-01-12 14:53:00,37.0,-99.9,30.39,NW,325,10.0,14.0,-999,-99.99,,,-99.99,,2013-01-12 22:53:00,
2013-01-12 15:03:00,38.0,-99.9,30.40,NNW,333,7.0,12.0,-999,-99.99,,,-99.99,,2013-01-12 23:03:00,
2013-01-12 15:13:00,38.0,-99.9,30.40,NNW,327,4.0,7.0,-999,-99.99,,,-99.99,,2013-01-12 23:13:00,
2013-01-12 15:23:00,39.0,-99.9,30.40,NW,319,4.0,8.0,-999,-99.99,,,-99.99,,2013-01-12 23:23:00,
2013-01-12 15:33:00,37.0,-99.9,30.40,NW,322,11.0,12.0,-999,-99.99,,,-99.99,,2013-01-12 23:33:00,
2013-01-12 15:43:00,37.0,-99.9,30.40,NNW,330,12.0,15.0,-999,-99.99,,,-99.99,,2013-01-12 23:43:00,
2013-01-12 15:53:00,38.0,-99.9,30.40,NW,315,7.0,13.0,-999,-99.99,,,-99.99,,2013-01-12 23:53:00,
2013-01-12 16:03:00,37.0,-99.9,30.40,NNW,343,2.0,10.0,-999,-99.99,,,-99.99,,2013-01-13 00:03:00,
2013-01-12 16:13:00,38.0,-99.9,30.40,NNW,329,4.0,8.0,-999,-99.99,,,-99.99,,2013-01-13 00:13:00,
2013-01-12 16:23:00,37.0,-99.9,30.40,ESE,106,1.0,6.0,-999,-99.99,,,-99.99,,2013-01-13 00:23:00,
2013-01-12 16:33:00,37.0,-99.9,30.40,NNW,340,3.0,8.0,-999,-99.99,,,-99.99,,2013-01-13 00:33:00,
2013-01-12 16:43:00,37.0,-99.9,30.40,North,11,2.0,7.0,-999,-99.99,,,-99.99,,2013-01-13 00:43:00,
2013-01-12 16:53:00,37.0,-99.9,30.40,NW,310,2.0,5.0,-999,-99.99,,,-99.99,,2013-01-13 00:53:00,
2013-01-12 17:03:00,36.0,-99.9,30.40,WSW,239,0.0,5.0,-999,-99.99,,,-99.99,,2013-01-13 01:03:00,
2013-01-12 17:12:00,35.0,-99.9,30.40,East,80,1.0,4.0,-999,-99.99,,,-99.99,,2013-01-13 01:12:00,
2013-01-12 17:23:00,35.0,-99.9,30.40,SSW,197,1.0,2.0,-999,-99.99,,,-99.99,,2013-01-13 01:23:00,
2013-01-12 17:33:00,36.0,-99.9,30.41,NW,315,4.0,5.0,-999,-99.99,,,-99.99,,2013-01-13 01:33:00,
2013-01-12 17:43:00,36.0,-99.9,30.41,SW,221,1.0,5.0,-999,-99.99,,,-99.99,,2013-01-13 01:43:00,
2013-01-12 17:53:00,35.0,-99.9,30.41,ENE,74,0.0,2.0,-999,-99.99,,,-99.99,,2013-01-13 01:53:00,
2013-01-12 18:03:00,35.0,-99.9,30.40,SE,129,3.0,5.0,-999,-99.99,,,-99.99,,2013-01-13 02:03:00,
2013-01-12 18:13:00,35.0,-99.9,30.40,SE,134,3.0,5.0,-999,-99.99,,,-99.99,,2013-01-13 02:13:00,
2013-01-12 18:23:00,35.0,-99.9,30.41,ESE,115,3.0,5.0,-999,-99.99,,,-99.99,,2013-01-13 02:23:00,
2013-01-12 18:33:00,35.0,-99.9,30.41,SE,146,2.0,5.0,-999,-99.99,,,-99.99,,2013-01-13 02:33:00,
2013-01-12 18:43:00,35.0,-99.9,30.41,SE,132,3.0,5.0,-999,-99.99,,,-99.99,,2013-01-13 02:43:00,
2013-01-12 18:53:00,35.0,-99.9,30.42,ESE,121,3.0,5.0,-999,-99.99,,,-99.99,,2013-01-13 02:53:00,
2013-01-12 19:03:00,35.0,-99.9,30.42,SE,130,4.0,5.0,-999,-99.99,,,-99.99,,2013-01-13 03:03:00,
2013-01-12 19:12:00,35.0,-99.9,30.42,SW,225,1.0,2.0,-999,-99.99,,,-99.99,,2013-01-13 03:12:00,
2013-01-12 19:22:00,35.0,-99.9,30.42,ESE,120,3.0,4.0,-999,-99.99,,,-99.99,,2013-01-13 03:22:00,
2013-01-12 19:33:00,35.0,-99.9,30.42,East,86,3.0,4.0,-999,-99.99,,,-99.99,,2013-01-13 03:33:00,
2013-01-12 19:43:00,35.0,-99.9,30.42,NE,56,1.0,4.0,-999,-99.99,,,-99.99,,2013-01-13 03:43:00,
2013-01-12 19:53:00,35.0,-99.9,30.42,East,84,0.0,2.0,-999,-99.99,,,-99.99,,2013-01-13 03:53:00,
2013-01-12 20:03:00,34.0,-99.9,30.42,East,89,2.0,4.0,-999,-99.99,,,-99.99,,2013-01-13 04:03:00,
2013-01-12 20:12:00,34.0,-99.9,30.42,ESE,120,2.0,2.0,-999,-99.99,,,-99.99,,2013-01-13 04:12:00,
2013-01-12 20:22:00,34.0,-99.9,30.42,ESE,104,2.0,5.0,-999,-99.99,,,-99.99,,2013-01-13 04:22:00,
2013-01-12 20:33:00,34.0,-99.9,30.42,East,90,2.0,4.0,-999,-99.99,,,-99.99,,2013-01-13 04:33:00,
2013-01-12 20:43:00,34.0,-99.9,30.42,ESE,123,4.0,6.0,-999,-99.99,,,-99.99,,2013-01-13 04:43:00,
2013-01-12 20:53:00,34.0,-99.9,30.42,ESE,119,4.0,5.0,-999,-99.99,,,-99.99,,2013-01-13 04:53:00,
2013-01-12 21:03:00,34.0,-99.9,30.42,ESE,113,2.0,5.0,-999,-99.99,,,-99.99,,2013-01-13 05:03:00,
2013-01-12 21:12:00,34.0,-99.9,30.42,ESE,115,3.0,4.0,-999,-99.99,,,-99.99,,2013-01-13 05:12:00,
2013-01-12 21:23:00,34.0,-99.9,30.42,ESE,107,2.0,4.0,-999,-99.99,,,-99.99,,2013-01-13 05:23:00,
2013-01-12 21:33:00,33.0,-99.9,30.41,ESE,116,4.0,6.0,-999,-99.99,,,-99.99,,2013-01-13 05:33:00,
2013-01-12 21:42:00,33.0,-99.9,30.42,SE,126,4.0,5.0,-999,-99.99,,,-99.99,,2013-01-13 05:42:00,
2013-01-12 21:53:00,33.0,-99.9,30.42,South,190,2.0,4.0,-999,-99.99,,,-99.99,,2013-01-13 05:53:00,
2013-01-12 22:03:00,33.0,-99.9,30.42,South,174,3.0,4.0,-999,-99.99,,,-99.99,,2013-01-13 06:03:00,
2013-01-12 22:12:00,33.0,-99.9,30.42,South,185,2.0,3.0,-999,-99.99,,,-99.99,,2013-01-13 06:12:00,
2013-01-12 22:22:00,33.0,-99.9,30.42,South,190,2.0,3.0,-999,-99.99,,,-99.99,,2013-01-13 06:22:00,
2013-01-12 22:33:00,33.0,-99.9,30.43,South,182,2.0,3.0,-999,-99.99,,,-99.99,,2013-01-13 06:33:00,
2013-01-12 22:43:00,33.0,-99.9,30.44,SSE,155,0.0,3.0,-999,-99.99,,,-99.99,,2013-01-13 06:43:00,
2013-01-12 22:53:00,33.0,-99.9,30.44,SSE,166,2.0,3.0,-999,-99.99,,,-99.99,,2013-01-13 06:53:00,
2013-01-12 23:02:00,32.0,-99.9,30.44,SSE,152,2.0,4.0,-999,-99.99,,,-99.99,,2013-01-13 07:02:00,
2013-01-12 23:12:00,32.0,-99.9,30.44,SE,144,2.0,3.0,-999,-99.99,,,-99.99,,2013-01-13 07:12:00,
2013-01-12 23:22:00,32.0,-99.9,30.44,SE,128,2.0,3.0,-999,-99.99,,,-99.99,,2013-01-13 07:22:00,
2013-01-12 23:33:00,33.0,-99.9,30.44,ESE,108,2.0,5.0,-999,-99.99,,,-99.99,,2013-01-13 07:33:00,
2013-01-12 23:42:00,33.0,-99.9,30.45,East,96,3.0,4.0,-999,-99.99,,,-99.99,,2013-01-13 07:42:00,
2013-01-12 23:53:00,33.0,-99.9,30.45,ESE,117,2.0,4.0,-999,-99.99,,,-99.99,,2013-01-13 07:53:00,